Date String (YYYY-MM-DD hh:mm:ss) UTC,Instrument flags,absolute air pressure of the measurement (hPa),sample flow rate (lpm),inlet stack bypass flow (lpm),air temperature of the measurement (°C),ambient temperature measured by the external sensor (°C),aerosol sample conditioner tube jacket temperature (°C),OPC LED temperature (°C),internal box temperature (°C),relative humidity of the measurement (%),span deviation,mass concentration of particles derived from Lorenz-Mie calculation of OPC scattering (μg/m³),mass concentration of particles derived from Lorenz-Mie calculation of OPC scattering (μg/m³),mass concentration of particles derived from Lorenz-Mie calculation of OPC scattering (μg/m³)
DateTimeUTC,F1_M11,P_M11,Q1_M11,Q2_M11,T1_M11,T2_M11,T3_M11,T4_M11,T5_M11,U1_M11,ZSPAN_M11,X0_M11,X2_M11,X1_M11
2024-01-27 23:00:00,SystemResetWarning,0835.3,5.01,000.00,025.7,024.9,000.0,033.9,026.9,07.8,0000.0,0006.35,0003.60,0003.26
2024-01-27 23:01:00,SystemResetWarning,0835.3,5.00,000.00,025.7,024.9,000.0,033.9,026.9,07.7,0000.0,0006.33,0003.58,0003.25
2024-01-27 23:02:00,SystemResetWarning,0835.3,4.98,000.00,025.7,024.9,000.0,033.9,026.9,07.7,0000.0,0006.03,0003.55,0003.23
2024-01-27 23:03:00,SystemResetWarning,0835.3,5.00,000.00,025.7,024.9,000.0,033.9,026.9,07.7,0000.0,0005.99,0003.52,0003.21
2024-01-27 23:04:00,SystemResetWarning,0835.3,5.00,000.00,025.7,024.9,000.0,033.9,026.9,07.7,0000.0,0006.13,0003.51,0003.20
2024-01-27 23:05:00,SystemResetWarning,0835.3,5.01,000.00,025.7,024.9,000.0,033.9,027.0,07.7,0000.0,0006.11,0003.49,0003.19
2024-01-27 23:06:00,SystemResetWarning,0835.3,5.00,000.00,025.7,024.9,000.0,033.9,027.0,07.7,0000.0,0006.05,0003.48,0003.18
2024-01-27 23:07:00,SystemResetWarning,0835.3,5.00,000.00,025.7,024.9,000.0,033.9,027.0,07.7,0000.0,0006.00,0003.49,0003.18
2024-01-27 23:08:00,SystemResetWarning,0835.3,5.01,000.00,025.7,024.9,000.0,033.9,027.0,07.8,0000.0,0006.68,0003.48,0003.16
2024-01-27 23:09:00,SystemResetWarning,0835.3,5.00,000.00,025.7,024.9,000.0,033.9,027.0,07.8,0000.0,0006.74,0003.50,0003.17
2024-01-27 23:10:00,SystemResetWarning,0835.3,4.99,000.00,025.7,024.9,000.0,034.0,027.1,07.8,0000.0,0006.90,0003.51,0003.17
2024-01-27 23:11:00,SystemResetWarning,0835.3,5.00,000.00,025.8,025.0,000.0,034.0,027.1,07.8,0000.0,0007.43,0003.53,0003.17
2024-01-27 23:12:00,SystemResetWarning,0835.3,5.00,000.00,025.8,025.0,000.0,034.0,027.1,07.8,0000.0,0007.56,0003.52,0003.16
2024-01-27 23:13:00,SystemResetWarning,0835.3,5.00,000.00,025.8,025.0,000.0,034.0,027.1,07.7,0000.0,0007.48,0003.49,0003.15
2024-01-27 23:14:00,SystemResetWarning,0835.3,5.01,000.00,025.8,025.0,000.0,034.0,027.1,07.6,0000.0,0007.54,0003.48,0003.13
2024-01-27 23:15:00,SystemResetWarning,0835.3,5.01,000.00,025.8,025.0,000.0,034.0,027.0,07.5,0000.0,0007.35,0003.44,0003.12
2024-01-27 23:16:00,SystemResetWarning,0835.3,5.01,000.00,025.8,025.0,000.0,034.0,027.0,07.5,0000.0,0007.33,0003.44,0003.11
2024-01-27 23:17:00,SystemResetWarning,0835.3,4.99,000.00,025.8,025.0,000.0,034.0,027.1,07.5,0000.0,0007.29,0003.41,0003.09
2024-01-27 23:18:00,SystemResetWarning,0835.3,4.99,000.00,025.8,025.0,000.0,034.0,027.1,07.5,0000.0,0006.82,0003.38,0003.08
2024-01-27 23:19:00,SystemResetWarning,0835.3,4.99,000.00,025.8,025.0,000.0,034.0,027.1,07.5,0000.0,0005.97,0003.38,0003.07
2024-01-27 23:20:00,SystemResetWarning,0835.3,5.00,000.00,025.8,025.0,000.0,034.0,027.1,07.5,0000.0,0006.26,0003.39,0003.06
2024-01-27 23:21:00,SystemResetWarning,0835.3,5.01,000.00,025.8,025.0,000.0,034.0,027.1,07.6,0000.0,0006.26,0003.37,0003.06
2024-01-27 23:22:00,SystemResetWarning,0835.3,5.00,000.00,025.8,025.0,000.0,034.1,027.1,07.6,0000.0,0005.78,0003.34,0003.04
2024-01-27 23:23:00,SystemResetWarning,0835.3,5.00,000.00,025.9,025.1,000.0,034.1,027.1,07.6,0000.0,0005.89,0003.35,0003.05
2024-01-27 23:24:00,SystemResetWarning,0835.3,5.00,000.00,025.9,025.1,000.0,034.1,027.1,07.7,0000.0,0005.98,0003.37,0003.06
2024-01-27 23:25:00,SystemResetWarning,0835.3,5.00,000.00,025.9,025.1,000.0,034.1,027.1,07.6,0000.0,0005.90,0003.37,0003.07
2024-01-27 23:26:00,SystemResetWarning,0835.3,4.99,000.00,025.9,025.1,000.0,034.1,027.1,07.5,0000.0,0006.07,0003.37,0003.08
2024-01-27 23:27:00,SystemResetWarning,0835.3,4.99,000.00,025.9,025.1,000.0,034.1,027.2,07.5,0000.0,0006.74,0003.35,0003.08
2024-01-27 23:28:00,SystemResetWarning,0835.3,5.00,000.00,025.9,025.1,000.0,034.1,027.2,07.6,0000.0,0006.71,0003.36,0003.08
2024-01-27 23:29:00,SystemResetWarning,0835.2,5.00,000.00,025.9,025.1,000.0,034.1,027.2,07.6,0000.0,0007.40,0003.38,0003.09
2024-01-27 23:30:00,SystemResetWarning,0835.2,5.00,000.00,025.9,025.1,000.0,034.1,027.2,07.6,0000.0,0007.79,0003.37,0003.09
2024-01-27 23:31:00,SystemResetWarning,0835.3,5.00,000.00,025.9,025.2,000.0,034.1,027.2,07.6,0000.0,0008.07,0003.38,0003.09
2024-01-27 23:32:00,SystemResetWarning,0835.3,5.00,000.00,026.0,025.2,000.0,034.1,027.2,07.7,0000.0,0007.82,0003.35,0003.09
2024-01-27 23:33:00,SystemResetWarning,0835.3,5.00,000.00,026.0,025.2,000.0,034.1,027.3,07.6,0000.0,0007.86,0003.36,0003.10
2024-01-27 23:34:00,SystemResetWarning,0835.3,4.98,000.00,026.0,025.2,000.0,034.2,027.3,07.6,0000.0,0007.55,0003.36,0003.10
2024-01-27 23:35:00,SystemResetWarning,0835.3,5.00,000.00,026.0,025.2,000.0,034.2,027.3,07.6,0000.0,0007.53,0003.35,0003.10
2024-01-27 23:36:00,SystemResetWarning,0835.3,5.01,000.00,026.0,025.3,000.0,034.2,027.3,07.5,0000.0,0007.68,0003.36,0003.10
2024-01-27 23:37:00,SystemResetWarning,0835.3,5.00,000.00,026.0,025.3,000.0,034.2,027.4,07.5,0000.0,0007.61,0003.36,0003.11
2024-01-27 23:38:00,SystemResetWarning,0835.4,5.00,000.00,026.1,025.3,000.0,034.2,027.4,07.5,0000.0,0007.23,0003.37,0003.10
2024-01-27 23:39:00,SystemResetWarning,0835.4,5.00,000.00,026.1,025.3,000.0,034.2,027.4,07.7,0000.0,0007.65,0003.38,0003.10
2024-01-27 23:40:00,SystemResetWarning,0835.4,5.00,000.00,026.1,025.3,000.0,034.2,027.4,07.6,0000.0,0006.93,0003.36,0003.09
2024-01-27 23:41:00,SystemResetWarning,0835.4,5.00,000.00,026.1,025.3,000.0,034.2,027.4,07.7,0000.0,0006.45,0003.34,0003.07
2024-01-27 23:42:00,SystemResetWarning,0835.4,5.00,000.00,026.1,025.4,000.0,034.3,027.5,07.6,0000.0,0005.55,0003.28,0003.03
2024-01-27 23:43:00,SystemResetWarning,0835.4,5.00,000.00,026.1,025.4,000.0,034.3,027.5,07.6,0000.0,0005.49,0003.27,0003.01
2024-01-27 23:44:00,SystemResetWarning,0835.4,5.00,000.00,026.1,025.4,000.0,034.3,027.5,07.5,0000.0,0005.28,0003.25,0002.99
2024-01-27 23:45:00,SystemResetWarning,0835.5,5.00,000.00,026.2,025.4,000.0,034.3,027.5,07.4,0000.0,0005.21,0003.23,0002.97
2024-01-27 23:46:00,SystemResetWarning,0835.4,5.00,000.00,026.2,025.4,000.0,034.3,027.5,07.5,0000.0,0005.31,0003.25,0002.97
2024-01-27 23:47:00,SystemResetWarning,0835.5,4.99,000.00,026.2,025.5,000.0,034.3,027.5,07.5,0000.0,0005.19,0003.26,0002.97
2024-01-27 23:48:00,SystemResetWarning,0835.4,4.99,000.00,026.2,025.5,000.0,034.3,027.5,07.5,0000.0,0005.01,0003.25,0002.94
2024-01-27 23:49:00,SystemResetWarning,0835.4,5.00,000.00,026.2,025.5,000.0,034.4,027.5,07.5,0000.0,0004.98,0003.24,0002.93
2024-01-27 23:50:00,SystemResetWarning,0835.3,5.01,000.00,026.2,025.5,000.0,034.4,027.6,07.4,0000.0,0004.26,0003.22,0002.92
2024-01-27 23:51:00,SystemResetWarning,0835.3,5.00,000.00,026.3,025.5,000.0,034.4,027.6,07.4,0000.0,0004.26,0003.22,0002.91
2024-01-27 23:52:00,SystemResetWarning,0835.3,5.00,000.00,026.3,025.6,000.0,034.4,027.6,07.4,0000.0,0004.33,0003.23,0002.92
2024-01-27 23:53:00,SystemResetWarning,0835.3,5.00,000.00,026.3,025.6,000.0,034.4,027.6,07.4,0000.0,0004.57,0003.24,0002.93
2024-01-27 23:54:00,SystemResetWarning,0835.4,4.99,000.00,026.3,025.6,000.0,034.4,027.6,07.3,0000.0,0004.71,0003.26,0002.93
2024-01-27 23:55:00,SystemResetWarning,0835.3,5.00,000.00,026.3,025.6,000.0,034.5,027.6,07.3,0000.0,0004.77,0003.27,0002.93
2024-01-27 23:56:00,SystemResetWarning,0835.4,5.01,000.00,026.3,025.6,000.0,034.5,027.6,07.3,0000.0,0004.91,0003.28,0002.92
2024-01-27 23:57:00,SystemResetWarning,0835.4,5.01,000.00,026.3,025.6,000.0,034.5,027.6,07.3,0000.0,0004.80,0003.26,0002.91
2024-01-27 23:58:00,SystemResetWarning,0835.4,5.00,000.00,026.3,025.6,000.0,034.5,027.6,07.3,0000.0,0004.62,0003.24,0002.90
2024-01-27 23:59:00,SystemResetWarning,0835.4,4.99,000.00,026.3,025.6,000.0,034.5,027.6,07.3,0000.0,0004.53,0003.22,0002.91
